Bei Facebook empfehlenBei Twitter postenGoogle plusPinterest

Das Wetter im Erzgebirge am 06.02.2015

Wetter und Klima am 06.02.2015 Holzhau im Erzgebirge (630m ü.NN)
Letzte gemessene Temperatur und Uhrzeit der Messung23:45:00 Uhr-7.50 °C
Temperatur (Maximum / Höchstwert) und Uhrzeit der Messung13:15:00 Uhr-2.90 °C
Temperatur (Minimum / Tiefstwert) und Uhrzeit der Messung23:45:00-7.50 °C
Errechneter Absolutwert der Temperaturschwankungen zwischen Tmin und Tmax des Tages4.60 K
Errechnete Tagesmitteltemperatur-5.52500 °C
Gesamt - Niederschlag des Tages (in flüssiger Form)0.00 Liter / m²
Luftdruck (Maximum / Höchstwert) und Zeitpunkt der Messung21:30:00 Uhr1023.10 hPa
Luftdruck (Minimum / Tiefstwert) und Zeitpunkt der Messung03:45:00 Uhr1018.80 hPa
Errechneter Absolutwert der Luftdruckschwankungen des Tages4.30 hPa
Höchste gemessene Windgeschwindigkeit und Uhrzeit der Messung11:15:00 Uhr16.92 km/h
Errechnete Windhäufigkeit in Relation zu den Messwerten des Tages19.79167 %
Niedrigste Windkühle (Windchill) und Zeitpunkt der Messung08:00:00 Uhr-10.00 °C
Taupunkt (Maximum / Höchstwert) und Uhrzeit der Messung12:15:00 Uhr-6.10 °C
Taupunkt (Minimum / Tiefstwert) und Uhrzeit der Messung23:45:00-9.30 °C
Anzahl der automatisch eingelesenen Messwerte 96

Detaillierte Wetter- und Klima- Messwerte für den 06.02.2015 in Holzhau im Erzgebirge (630m ü.NN)
ZeitTemperaturLuftdruckRel. LuftfeuchteWindWindrichtungWindchillTaupunktNiederschlag l/m²
23:45:00-7.50 °C1022.90 hPa88.00 %-9.30 °C 
23:30:00-7.50 °C1023.00 hPa88.00 %-9.30 °C 
23:15:00-7.40 °C1022.90 hPa88.00 %-9.20 °C 
23:00:00-7.40 °C1023.00 hPa88.00 %-9.20 °C 
22:45:00-7.40 °C1023.00 hPa88.00 %-9.20 °C 
22:30:00-7.40 °C1023.00 hPa88.00 %-9.20 °C 
22:15:00-7.40 °C1022.90 hPa88.00 %-9.20 °C 
22:00:00-7.40 °C1022.80 hPa88.00 %-9.20 °C 
21:45:00-7.40 °C1023.00 hPa88.00 %-9.20 °C 
21:30:00-7.40 °C1023.10 hPa88.00 %-9.20 °C 
21:15:00-7.30 °C1022.80 hPa88.00 %-9.10 °C 
21:00:00-7.30 °C1022.80 hPa88.00 %-9.10 °C 
20:45:00-7.30 °C1022.80 hPa88.00 %-9.10 °C 
20:30:00-7.20 °C1022.50 hPa88.00 %-9.00 °C 
20:15:00-7.10 °C1022.50 hPa88.00 %-8.90 °C 
20:00:00-7.00 °C1022.30 hPa87.00 %-9.00 °C 
19:45:00-6.90 °C1022.20 hPa87.00 %-8.90 °C 
19:30:00-6.70 °C1022.10 hPa87.00 %-8.70 °C 
19:15:00-6.60 °C1021.90 hPa87.00 %-8.60 °C 
19:00:00-6.60 °C1022.20 hPa87.00 %-8.60 °C 
18:45:00-6.60 °C1022.20 hPa87.00 %-8.60 °C 
18:30:00-6.60 °C1022.10 hPa87.00 %-8.60 °C 
18:15:00-6.60 °C1021.90 hPa87.00 %-8.60 °C 
18:00:00-6.60 °C1021.90 hPa87.00 %-8.60 °C 
17:45:00-6.60 °C1021.80 hPa86.00 %6.12 km/hSSO-9.70 °C-8.80 °C 
17:30:00-6.50 °C1021.90 hPa86.00 %-8.70 °C 
17:15:00-6.40 °C1021.80 hPa86.00 %-8.60 °C 
17:00:00-6.20 °C1021.80 hPa86.00 %-8.40 °C 
16:45:00-6.10 °C1021.60 hPa85.00 %-8.50 °C 
16:30:00-5.70 °C1021.50 hPa85.00 %-8.10 °C 
16:15:00-5.60 °C1021.20 hPa84.00 %-8.10 °C 
16:00:00-5.50 °C1021.50 hPa84.00 %-8.00 °C 
15:45:00-5.20 °C1021.50 hPa83.00 %-7.90 °C 
15:30:00-4.90 °C1021.30 hPa82.00 %-7.80 °C 
15:15:00-4.50 °C1021.20 hPa82.00 %-7.40 °C 
15:00:00-4.10 °C1021.20 hPa81.00 %-7.20 °C 
14:45:00-3.50 °C1021.30 hPa80.00 %-6.80 °C 
14:30:00-3.10 °C1021.20 hPa80.00 %-6.40 °C 
14:15:00-3.40 °C1021.10 hPa80.00 %6.84 km/hSO-6.30 °C-6.70 °C 
14:00:00-3.60 °C1021.40 hPa80.00 %-6.90 °C 
13:45:00-3.70 °C1021.40 hPa80.00 %-7.00 °C 
13:30:00-3.60 °C1021.50 hPa80.00 %10.08 km/hOSO-7.60 °C-6.90 °C 
13:15:00-2.90 °C1021.30 hPa79.00 %-6.40 °C 
13:00:00-3.10 °C1021.60 hPa81.00 %-6.20 °C 
12:45:00-3.60 °C1021.60 hPa81.00 %9.36 km/hSO-7.40 °C-6.70 °C 
12:30:00-3.20 °C1021.70 hPa81.00 %11.52 km/hOSO-7.60 °C-6.30 °C 
12:15:00-3.00 °C1021.50 hPa81.00 %-6.10 °C 
12:00:00-3.50 °C1021.20 hPa82.00 %7.56 km/hSSO-6.70 °C-6.40 °C 
11:45:00-4.10 °C1021.20 hPa83.00 %-6.80 °C 
11:30:00-4.10 °C1021.00 hPa83.00 %11.16 km/hOSO-8.50 °C-6.80 °C 
11:15:00-3.90 °C1020.90 hPa82.00 %16.92 km/hSO-9.60 °C-6.80 °C 
11:00:00-3.80 °C1020.80 hPa83.00 %9.00 km/hSO-7.50 °C-6.60 °C 
10:45:00-3.90 °C1020.50 hPa84.00 %6.48 km/hOSO-6.70 °C-6.50 °C 
10:30:00-4.40 °C1020.40 hPa85.00 %-6.80 °C 
10:15:00-4.60 °C1020.40 hPa86.00 %7.20 km/hOSO-7.80 °C-6.80 °C 
10:00:00-4.80 °C1020.50 hPa87.00 %-6.80 °C 
09:45:00-5.00 °C1020.40 hPa87.00 %3.96 km/hSO-5.00 °C-7.00 °C 
09:30:00-4.80 °C1020.30 hPa88.00 %5.76 km/hNNW-7.40 °C-6.70 °C 
09:15:00-4.90 °C1020.50 hPa88.00 %-6.80 °C 
09:00:00-5.20 °C1020.70 hPa88.00 %-7.10 °C 
08:45:00-5.60 °C1020.30 hPa89.00 %9.00 km/hSO-9.70 °C-7.30 °C 
08:30:00-5.80 °C1020.00 hPa89.00 %-7.50 °C 
08:15:00-5.90 °C1020.00 hPa89.00 %-7.60 °C 
08:00:00-6.20 °C1019.80 hPa88.00 %7.92 km/hSO-10.00 °C-8.10 °C 
07:45:00-5.90 °C1019.70 hPa88.00 %-7.80 °C 
07:30:00-5.70 °C1019.80 hPa88.00 %-7.60 °C 
07:15:00-5.40 °C1019.60 hPa88.00 %4.32 km/hSO-5.40 °C-7.30 °C 
07:00:00-5.20 °C1019.60 hPa88.00 %-7.10 °C 
06:45:00-5.20 °C1019.90 hPa88.00 %-7.10 °C 
06:30:00-5.10 °C1019.80 hPa88.00 %-7.00 °C 
06:15:00-5.10 °C1019.90 hPa88.00 %6.12 km/hSO-7.90 °C-7.00 °C 
06:00:00-5.10 °C1019.80 hPa88.00 %-7.00 °C 
05:45:00-5.10 °C1020.00 hPa89.00 %-6.80 °C 
05:30:00-5.20 °C1019.80 hPa89.00 %-6.90 °C 
05:15:00-5.30 °C1019.60 hPa89.00 %-7.00 °C 
05:00:00-5.40 °C1019.40 hPa88.00 %-7.30 °C 
04:45:00-5.40 °C1019.40 hPa88.00 %2.52 km/hONO-5.40 °C-7.30 °C 
04:30:00-5.30 °C1019.00 hPa88.00 %-7.20 °C 
04:15:00-5.10 °C1018.90 hPa88.00 %-7.00 °C 
04:00:00-5.10 °C1018.90 hPa88.00 %-7.00 °C 
03:45:00-5.10 °C1018.80 hPa88.00 %-7.00 °C 
03:30:00-5.20 °C1018.90 hPa89.00 %-6.90 °C 
03:15:00-5.40 °C1018.80 hPa89.00 %-7.10 °C 
03:00:00-5.40 °C1018.90 hPa89.00 %-7.10 °C 
02:45:00-5.40 °C1019.10 hPa89.00 %-7.10 °C 
02:30:00-5.40 °C1019.10 hPa89.00 %-7.10 °C 
02:15:00-5.60 °C1019.10 hPa89.00 %9.00 km/hSO-9.70 °C-7.30 °C 
02:00:00-5.60 °C1019.20 hPa89.00 %-7.30 °C 
01:45:00-5.80 °C1019.50 hPa89.00 %-7.50 °C 
01:30:00-6.10 °C1019.20 hPa89.00 %-7.80 °C 
01:15:00-6.20 °C1019.40 hPa89.00 %-7.90 °C 
01:00:00-6.20 °C1019.40 hPa89.00 %-7.90 °C 
00:45:00-6.10 °C1019.40 hPa88.00 %-8.00 °C 
00:30:00-5.60 °C1019.40 hPa89.00 %-7.30 °C 
00:15:00-5.70 °C1019.60 hPa89.00 %-7.40 °C 
00:00:00-5.90 °C1019.60 hPa89.00 %-7.60 °C 

Permanenter Link zu dieser Seite: Wetter im Erzgebirge am 06.02.2015
Performance-Info: Die Erstellung der Seite / Statistik(en) / Tabelle(n) erforderte 5 Datenbankserver-Abfrage(n) und dauerte 103 Millisekunden. (Dieser Messwert ist von der Gesamt-Auslastung des Servers abhängig.)
Erzgebirge - Wetter | Erzgebirge - Wetter (Mobilgeräte) | Komplette Klimadatenbank